Regional Weather Roundup
Issued by NWS Green Bay, WI

Home | Current Version | Previous Version | Graphics & Text | Print | Product List | Glossary Off
Versions: 1 2 3 4 5 6 7 8 9 10 11 12 13 14 15 16 17 18 19 20 21 22 23 24 25 26 27 28 29 30 31 32 33 34 35 36 37 38 39 40 41 42 43 44 45 46 47 48 49 50

000
ASUS43 KGRB 221811
RWRGRB

NORTH-CENTRAL AND NORTHEAST WISCONSIN REGIONAL WEATHER ROUNDUP
NATIONAL WEATHER SERVICE GREEN BAY WI
100 PM CDT SUN OCT 22 2017

WIZ005-009-010>012-018-019-221900-
NORTH CENTRAL WISCONSIN

CITY           SKY/WX    TMP DP  RH WIND       PRES   REMARKS
IRONWOOD       CLOUDY    50  39  66 W9        29.92S
MANITOWISH WTR CLOUDY    47  46  95 SW5       29.93F
ARBOR VITAE    CLOUDY    49  46  87 W6        29.93F
EAGLE RIVER    NOT AVBL
LAND O LAKES   CLOUDY    48  44  84 W3        29.94S
RHINELANDER    CLOUDY    48  46  93 W6        29.95F
PHILLIPS       PTSUNNY   48  44  85 SW5       29.95F
ANTIGO         DRIZZLE   47  45  91 W7        29.97R
TOMAHAWK       CLOUDY    48  44  86 W5        29.96S
MERRILL        CLOUDY    49  47  92 W6        29.97S
$$

WIZ013-073-221900-
NORTHEAST WISCONSIN

CITY           SKY/WX    TMP DP  RH WIND       PRES   REMARKS
IRON MOUNTAIN  RAIN      51  46  83 W8        29.93R
MARINETTE      LGT RAIN  52  50  93 VRB5      29.93F
OCONTO         CLOUDY    50  48  92 W6        29.94F
$$

WIZ017-030-035>037-045-221900-
CENTRAL WISCONSIN

CITY           SKY/WX    TMP DP  RH WIND       PRES   REMARKS
MEDFORD        CLOUDY    48  42  80 W8        29.97S
WAUSAU         LGT RAIN  49  46  90 W8        29.97R
MOSINEE        DRIZZLE   48  46  93 W7        29.99R
MARSHFIELD     CLOUDY    50  43  77 W7        29.97F
WISC RAPIDS    LGT RAIN  50  48  93 W6        30.00S
STEVENS POINT  LGT RAIN  48  47  97 W5        29.98S
WAUPACA        CLOUDY    53  50  88 NW3       29.98F
SHAWANO        RAIN      53  50  87 W3        29.96S
CLINTONVILLE   CLOUDY    52  48  87 NW7       29.96S
WAUTOMA        CLOUDY   N/A N/A N/A W6        29.99F
$$

WIZ038-039-048-051-221900-
FOX VALLEY

CITY           SKY/WX    TMP DP  RH WIND       PRES   REMARKS
NWS GREEN BAY  CLOUDY    52  51  97 NW6       29.96S
APPLETON       CLOUDY    52  48  87 NW7       29.95F
OSHKOSH        LGT RAIN  51  48  89 NW7       29.98R
FOND DU LAC    LGT RAIN  51  47  86 NW7       29.99R
$$

WIZ022-050-052-221900-
EAST CENTRAL WISCONSIN

CITY           SKY/WX    TMP DP  RH WIND       PRES   REMARKS
EPHRAIM        CLOUDY    51  49  91 W14       29.94R
WASHINGTON ISL LGT RAIN  53  51  94 NW8       29.90S
STURGEON BAY   LGT RAIN  52  50  93 NW10      29.95R
MANITOWOC      LGT RAIN  52  50  93 NW13      29.96R
SHEBOYGAN      LGT RAIN  52  51  97 NW10G21   29.96R
$$

LMZ563-521-522-541>543-221900-
LAKESHORE

STATION/POSITION TIME  TEMP    WIND        PRES    VSBY  WAVE
                       AIR SEA DIR/SP/G                  HT/PER
                 (UTC) (F)     (DEG/KT/KT) (MB)    (MI)  (FT/S)
SHEBOYGAN LKSHOR 1800   53     330/ 19/ 23 1014.2R
KEWAUNEE LKSHORE 1742   53     300/ 12/ 21 1013.2R
NORTHPORT PIER   1740   54     300/ 12/ 19 1012.5S
N MID LAKE BUOY  1750   60 58  190/ 23/ 27 1012.1F         7/ 7
S GREEN BAY BUOY 1800   51 58  310/ 12/ 14 1013.8
SISTER BAY LKSHO 1704   58     190/ 16/ 20   N/A
MENOMINEE LKSHOR 1742   52     290/  9/ 13 1013.5R
$$




USA.gov is the U.S. government's official web portal to all federal, state and local government web resources and services.